Date,TemperatureHighF,TemperatureAvgF,TemperatureLowF,DewpointHighF,DewpointAvgF,DewpointLowF,HumidityHigh,HumidityAvg,HumidityLow,PressureMaxIn,PressureMinIn,WindSpeedMaxMPH,WindSpeedAvgMPH,GustSpeedMaxMPH,PrecipitationSumIn
2013-1-1,14,10,5,8,1,-100,87,74,69,0.00,40.00,35,21,44,0.00
2013-1-2,14,10,6,8,2,-100,84,74,60,0.00,40.00,24,16,29,0.00
2013-1-3,19,13,5,2,-8,-100,66,43,28,0.00,40.00,20,12,26,0.00
2013-1-4,30,20,8,7,-2,-100,58,40,27,0.00,40.00,14,6,18,0.00
2013-1-5,25,21,10,7,-2,-100,51,38,22,0.00,40.00,32,15,40,0.00
2013-1-6,42,31,17,14,1,-13,53,28,16,0.00,40.00,27,12,35,0.00
2013-1-7,34,29,26,15,2,-100,61,34,22,0.00,40.00,46,26,57,0.00
2013-1-8,28,25,23,21,15,-100,93,74,63,0.00,40.00,45,35,57,0.04
2013-1-9,43,34,24,23,13,-100,75,47,23,0.00,40.00,35,15,45,0.00
2013-1-10,44,36,28,15,6,-100,54,30,17,0.00,40.00,30,14,44,0.00
2013-1-11,33,16,1,24,8,-100,98,79,45,0.00,40.00,35,23,49,0.13
2013-1-12,6,-1,-7,-1,-8,-100,87,78,66,0.00,40.00,17,9,26,0.00
2013-1-13,5,-4,-9,-2,-13,-100,84,73,68,0.00,40.00,11,4,14,0.00
2013-1-14,0,-5,-11,-8,-19,-100,75,63,57,0.00,40.00,32,16,42,0.00
2013-1-15,17,9,-1,12,-3,-100,81,67,58,0.00,40.00,32,27,44,0.00
2013-1-16,25,20,15,15,8,-100,79,65,53,0.00,40.00,33,24,43,0.00
2013-1-17,31,25,15,13,5,-100,66,47,35,0.00,40.00,27,14,35,0.00
2013-1-18,34,28,25,11,1,-100,45,35,30,0.00,40.00,42,28,53,0.00
2013-1-19,36,29,25,12,3,-100,48,35,26,0.00,40.00,39,30,50,0.00
2013-1-20,31,27,23,9,2,-100,51,37,32,0.00,40.00,37,25,46,0.00
2013-1-21,33,28,23,12,6,-100,54,41,30,0.00,40.00,44,32,54,0.00
2013-1-22,40,33,28,7,0,-100,37,26,16,0.00,40.00,45,34,55,0.00
2013-1-23,47,39,34,13,3,-100,40,23,13,0.00,40.00,35,25,44,0.00
2013-1-24,41,35,33,29,14,-100,83,50,25,0.00,40.00,46,35,60,0.06
2013-1-25,37,33,31,30,26,-100,89,78,66,0.00,40.00,40,27,49,0.00
2013-1-26,41,36,32,31,26,-100,92,72,52,0.00,40.00,37,16,47,0.00
2013-1-27,41,34,30,31,24,-100,99,73,45,0.00,40.00,34,15,42,0.05
2013-1-28,33,19,10,29,14,-100,99,86,71,0.00,40.00,29,15,36,0.42
2013-1-29,14,9,4,8,3,-100,91,80,70,0.00,40.00,26,15,34,0.01
2013-1-30,25,16,4,22,12,-100,95,87,73,0.00,40.00,38,29,49,0.08
2013-1-31,26,24,21,23,20,17,96,86,77,0.00,40.00,37,30,45,0.21
2013-2-1,28,24,23,25,20,-100,99,89,69,0.00,40.00,41,30,51,0.37
2013-2-2,32,27,21,20,14,-100,93,62,37,0.00,40.00,42,30,58,0.02
2013-2-3,35,29,23,15,7,-100,55,40,29,0.00,40.00,33,20,43,0.00
2013-2-4,31,27,23,19,9,-100,64,53,42,0.00,40.00,39,28,54,0.00
2013-2-5,41,33,26,22,15,-100,65,51,37,0.00,40.00,40,32,52,0.00
2013-2-6,36,31,20,25,18,-100,77,60,39,0.00,40.00,31,22,37,0.00
2013-2-7,39,26,16,13,0,-100,74,37,14,0.00,40.00,21,14,26,0.00
2013-2-8,42,31,21,25,3,-100,92,36,22,0.00,40.00,18,7,25,0.00
2013-2-9,27,20,16,26,15,-100,97,89,71,0.00,40.00,14,6,23,0.58
2013-2-10,18,12,1,17,8,-100,95,90,78,0.00,40.00,11,6,14,0.15
2013-2-11,15,6,-3,4,-6,-100,78,65,50,0.00,40.00,25,10,32,0.00
2013-2-12,18,13,9,14,-1,-100,91,64,53,0.00,40.00,34,24,44,0.00
2013-2-13,23,20,16,22,13,-100,96,86,83,0.00,40.00,49,36,62,0.05
2013-2-14,23,17,12,20,9,-100,97,86,79,0.00,40.00,34,12,42,0.05
2013-2-15,23,18,14,18,11,-100,93,79,66,0.00,40.00,41,24,50,0.00
2013-2-16,33,27,22,20,12,-100,88,58,42,0.00,40.00,44,37,56,0.00
2013-2-17,34,27,18,21,12,-100,95,58,32,0.00,40.00,34,22,44,0.33
2013-2-18,19,15,13,16,4,-100,95,77,41,0.00,40.00,31,20,41,0.08
2013-2-19,37,25,16,14,-1,-100,52,36,20,0.00,40.00,17,6,24,0.00
2013-2-20,37,26,18,20,8,-100,96,54,33,0.00,40.00,11,5,20,0.01
2013-2-21,18,15,11,17,9,-100,96,87,78,0.00,40.00,17,7,23,0.12
2013-2-22,18,15,11,15,7,-100,92,79,67,0.00,40.00,47,26,57,0.00
2013-2-23,29,21,15,20,11,-100,92,70,55,0.00,40.00,46,24,57,0.01
2013-2-24,20,14,6,19,6,-100,95,84,72,0.00,40.00,15,9,21,0.40
2013-2-25,24,16,8,13,2,-100,77,62,50,0.00,40.00,30,19,40,0.01
2013-2-26,20,15,11,16,10,-100,95,86,68,0.00,40.00,31,13,39,0.01
2013-2-27,16,12,7,11,2,-100,93,73,64,0.00,40.00,31,19,39,0.00
2013-2-28,22,17,13,16,4,-100,82,67,60,0.00,40.00,38,28,45,0.00
2013-3-1,32,25,20,28,17,-100,91,81,79,0.00,40.00,35,28,42,0.02
2013-3-2,40,33,29,27,18,-100,83,61,39,0.00,40.00,37,27,46,0.00
2013-3-3,40,33,30,32,24,-100,99,75,40,0.00,40.00,33,26,42,0.52
2013-3-4,30,17,7,24,6,-100,94,72,61,0.00,40.00,29,17,38,0.12
2013-3-5,35,24,11,14,0,-100,72,40,16,0.00,40.00,29,21,40,0.00
2013-3-6,46,38,27,20,11,-100,47,34,20,0.00,40.00,32,21,41,0.00
2013-3-7,48,38,29,27,22,15,76,52,33,0.00,40.00,35,10,44,0.00
2013-3-8,47,37,30,27,16,-100,88,46,23,0.00,40.00,17,5,26,0.00
2013-3-9,33,24,17,28,17,-100,99,84,68,0.00,40.00,17,9,26,0.15
2013-3-10,31,23,11,22,14,-100,96,72,56,0.00,40.00,29,15,36,0.00
2013-3-11,32,26,19,28,15,-100,99,75,57,0.00,40.00,39,21,51,0.11
2013-3-12,36,26,15,28,18,-100,98,81,70,0.00,40.00,31,17,40,0.00
2013-3-13,43,37,32,32,26,-100,80,68,56,0.00,40.00,41,28,50,0.00
2013-3-14,51,42,35,29,23,-100,61,48,35,0.00,40.00,27,21,34,0.00
2013-3-15,53,45,40,28,21,-100,62,40,24,0.00,40.00,32,23,40,0.00
2013-3-16,47,38,28,26,14,-100,79,43,16,0.00,40.00,30,17,38,0.00
2013-3-17,36,28,18,27,8,-100,95,49,32,0.00,40.00,52,30,72,0.00
2013-3-18,33,22,15,12,2,-100,69,48,30,0.00,40.00,42,30,54,0.00
2013-3-19,37,26,15,9,-2,-100,71,35,13,0.00,40.00,42,23,62,0.00
2013-3-20,45,32,22,31,9,-100,97,46,17,0.00,40.00,42,23,54,0.31
2013-3-21,35,29,18,31,22,-100,100,79,62,0.00,40.00,40,29,52,0.32
2013-3-22,27,17,13,12,6,-100,84,66,32,0.00,40.00,31,19,37,0.00
2013-3-23,14,11,9,11,7,-100,92,87,79,0.00,40.00,17,12,23,0.08
2013-3-25,25,16,2,8,-1,-100,78,54,33,0.00,40.00,18,10,24,0.00
2013-3-26,36,28,17,30,17,-100,98,67,35,0.00,40.00,30,18,37,0.17
2013-3-27,45,35,27,27,25,21,90,68,40,0.00,40.00,26,11,34,0.00
2013-3-28,51,40,31,26,21,-100,75,50,29,0.00,40.00,18,9,25,0.00
2013-3-29,49,40,33,35,25,-100,84,58,39,0.00,40.00,31,13,44,0.00
2013-3-30,48,39,30,28,22,-100,70,55,32,0.00,40.00,34,17,40,0.00
2013-3-31,54,40,29,23,15,-100,67,39,14,0.00,40.00,36,18,44,0.00
2013-4-1,53,36,22,31,20,-100,88,61,30,0.00,40.00,15,7,25,0.00
2013-4-2,42,33,29,31,24,-100,97,77,51,0.00,40.00,17,9,34,0.00
2013-4-3,53,38,26,33,20,-100,92,57,20,0.00,40.00,30,10,38,0.01
2013-4-4,55,44,33,29,23,-100,76,48,25,0.00,40.00,27,16,35,0.00
2013-4-5,55,44,35,38,26,19,88,51,27,0.00,40.00,44,25,55,0.00
2013-4-6,45,37,31,35,22,-100,94,60,37,0.00,40.00,32,21,45,0.01
2013-4-7,45,37,32,32,27,-100,89,69,40,0.00,40.00,42,21,54,0.00
2013-4-8,48,30,11,33,20,-100,99,73,38,0.00,40.00,29,15,40,0.47
2013-4-9,10,5,-1,8,-2,-100,92,85,86,0.00,40.00,17,11,22,0.16
2013-4-10,25,13,-2,23,6,-100,93,79,58,0.00,40.00,32,16,40,0.02
2013-4-11,36,30,25,29,23,-100,95,79,59,0.00,40.00,33,18,42,0.03
2013-4-12,41,31,27,29,20,-100,98,74,40,0.00,40.00,22,12,33,0.00
2013-4-13,43,34,28,33,19,-100,100,62,33,0.00,40.00,40,24,57,0.47
2013-4-14,28,22,17,25,6,-100,92,61,29,0.00,40.00,37,24,48,0.00
2013-4-15,24,19,16,19,11,-100,96,84,58,0.00,40.00,22,14,29,0.01
2013-4-16,33,20,15,31,15,-100,97,90,80,0.00,40.00,29,15,47,0.24
2013-4-17,18,13,8,17,8,-100,96,90,88,0.00,40.00,23,12,29,0.38
2013-4-18,23,13,2,14,4,-100,91,74,52,0.00,40.00,29,15,33,0.04
2013-4-19,32,26,19,27,19,-100,95,77,66,0.00,40.00,42,30,52,0.13
2013-4-20,38,32,29,32,26,-100,99,85,71,0.00,40.00,31,21,39,0.72
2013-4-21,42,36,31,30,25,-100,95,67,50,0.00,40.00,35,24,42,0.03
2013-4-22,38,22,12,31,15,-100,98,84,58,0.00,40.00,26,16,34,0.31
2013-4-23,29,17,6,17,4,-100,93,69,50,0.00,40.00,21,10,27,0.01
2013-4-24,39,29,19,17,8,-100,65,46,25,0.00,40.00,23,14,31,0.00
2013-4-25,50,39,29,20,8,-100,49,30,22,0.00,40.00,26,16,34,0.00
2013-4-26,54,43,28,21,13,-100,55,32,17,0.00,40.00,13,6,17,0.00
2013-4-27,60,48,37,23,17,-100,43,30,18,0.00,40.00,28,18,37,0.00
2013-4-28,62,52,41,31,24,19,59,35,22,0.00,40.00,31,21,56,0.00
2013-4-29,62,49,39,30,20,-100,63,35,19,0.00,40.00,49,31,60,0.00
2013-4-30,50,37,27,35,27,-100,100,73,34,0.00,40.00,37,15,52,0.31
2013-5-1,27,20,15,26,10,-100,100,85,80,0.00,40.00,23,15,32,0.07
2013-5-2,42,26,12,19,9,-100,88,54,23,0.00,40.00,20,8,32,0.00
2013-5-3,54,42,30,28,14,-100,58,34,17,0.00,40.00,18,10,31,0.00
2013-5-4,50,42,36,27,22,-100,66,48,32,0.00,40.00,24,16,37,0.00
2013-5-5,53,40,30,36,24,-100,78,56,33,0.00,40.00,20,11,31,0.00
2013-5-6,57,46,33,34,28,-100,78,53,32,0.00,40.00,16,6,24,0.00
2013-5-7,56,45,36,37,32,27,83,62,34,0.00,40.00,21,10,29,0.00
2013-5-8,54,44,36,39,34,30,93,70,45,0.00,40.00,19,9,33,0.19
2013-5-9,52,42,35,38,33,-100,95,73,41,0.00,40.00,17,8,26,0.00
2013-5-10,62,45,35,37,25,-100,89,54,23,0.00,40.00,14,7,25,0.00
2013-5-11,64,48,35,34,22,-100,80,44,16,0.00,40.00,25,8,37,0.00
2013-5-12,69,55,43,30,26,-100,54,34,18,0.00,40.00,19,10,30,0.00
2013-5-13,74,62,51,33,30,-100,45,31,18,0.00,40.00,21,13,31,0.00
2013-5-14,74,63,55,32,26,-100,37,26,15,0.00,40.00,21,13,29,0.00
2013-5-15,70,58,51,42,32,-100,72,40,23,0.00,40.00,27,10,35,0.00
2013-5-16,69,51,46,45,19,-100,91,51,20,0.00,40.00,33,16,45,0.00
2013-5-17,70,57,45,35,21,-100,60,31,13,0.00,40.00,22,11,37,0.00
2013-5-18,60,48,40,36,30,-100,76,53,27,0.00,40.00,32,14,44,0.00
2013-5-19,47,41,38,39,33,-100,98,76,59,0.00,40.00,26,19,32,0.09
2013-5-20,45,38,36,38,31,-100,100,81,58,0.00,40.00,24,15,32,0.09
2013-5-21,55,42,31,32,26,-100,82,56,34,0.00,40.00,23,12,34,0.00
2013-5-22,63,52,41,40,33,-100,73,52,27,0.00,40.00,34,12,55,0.00
2013-5-23,72,58,46,43,26,-100,71,35,12,0.00,40.00,29,11,39,0.00
2013-5-24,68,56,43,28,20,-100,51,27,14,0.00,40.00,23,13,36,0.00
2013-5-25,72,60,45,21,17,13,35,20,11,0.00,40.00,28,12,40,0.00
2013-5-26,73,60,48,25,17,-100,29,20,11,0.00,40.00,21,12,32,0.00
2013-5-27,65,55,47,30,20,-100,41,26,19,0.00,40.00,35,14,56,0.00
2013-5-28,66,52,41,39,25,15,79,37,22,0.00,40.00,22,9,34,0.01
2013-5-29,52,42,39,39,33,-100,92,75,43,0.00,40.00,33,17,45,0.11
2013-5-30,54,43,37,34,24,-100,84,53,24,0.00,40.00,46,34,59,0.00
2013-5-31,54,44,35,32,23,-100,72,47,26,0.00,40.00,35,27,46,0.00
2013-6-1,58,45,36,35,32,-100,88,63,36,0.00,40.00,19,10,28,0.00
2013-6-2,73,60,42,31,25,19,65,30,14,0.00,40.00,25,14,35,0.00
2013-6-3,69,59,47,30,15,-100,38,19,8,0.00,40.00,40,23,51,0.00
2013-6-4,65,50,39,37,22,-100,75,38,18,0.00,40.00,23,12,33,0.00
2013-6-5,62,47,33,37,25,-100,92,53,19,0.00,40.00,16,7,24,0.00
2013-6-6,70,55,40,34,24,-100,52,33,20,0.00,40.00,14,6,22,0.00
2013-6-7,72,59,47,41,30,-100,66,39,20,0.00,40.00,24,10,39,0.00
2013-6-8,69,58,47,44,31,-100,81,40,18,0.00,40.00,22,12,32,0.00
2013-6-9,81,64,46,34,28,-100,49,28,12,0.00,40.00,26,15,37,0.00
2013-6-10,83,69,56,33,27,-100,37,22,13,0.00,40.00,30,16,63,0.00
2013-6-11,78,68,58,30,19,-100,26,17,12,0.00,40.00,34,21,46,0.00
2013-6-12,79,66,53,37,24,-100,39,23,12,0.00,40.00,22,10,34,0.00
2013-6-13,79,69,61,34,25,-100,28,21,14,0.00,40.00,38,15,49,0.00
2013-6-14,73,61,50,31,20,-100,46,23,12,0.00,40.00,29,17,40,0.00
2013-6-15,74,59,43,38,20,-100,65,26,11,0.00,40.00,22,8,37,0.00
2013-6-16,75,62,49,33,25,17,39,25,14,0.00,40.00,20,11,36,0.00
2013-6-17,77,62,49,44,32,-100,61,36,13,0.00,40.00,19,8,34,0.00
2013-6-18,74,62,51,43,32,-100,68,37,18,0.00,40.00,24,9,43,0.00
2013-6-19,80,66,51,42,19,-100,67,21,9,0.00,40.00,29,15,41,0.00
2013-6-20,72,56,44,23,16,9,31,21,13,0.00,40.00,15,8,26,0.00
2013-6-22,74,63,52,41,24,16,52,24,13,0.00,40.00,32,15,46,0.00
2013-6-24,76,65,53,29,24,17,36,23,11,0.00,40.00,28,14,39,0.00
2013-6-25,73,58,50,38,23,-100,59,33,23,0.00,40.00,35,20,44,0.00
2013-6-26,82,69,54,37,30,-100,50,27,14,0.00,40.00,24,13,34,0.00
2013-6-27,85,72,59,39,32,28,40,25,12,0.00,40.00,19,8,28,0.00
2013-6-28,87,66,54,48,29,-100,51,32,14,0.00,40.00,14,7,21,0.00
2013-6-29,86,66,53,50,35,-100,76,40,16,0.00,40.00,15,6,20,0.00
2013-6-30,80,62,53,51,42,-100,89,56,26,0.00,40.00,16,6,24,0.00
2013-7-1,80,61,51,47,40,-100,69,51,21,0.00,40.00,13,7,22,0.00
2013-7-2,80,66,52,43,39,31,65,41,17,0.00,40.00,13,6,24,0.00
2013-7-3,81,62,53,47,34,-100,68,40,20,0.00,40.00,16,8,27,0.00
2013-7-4,81,67,54,53,43,37,91,45,22,0.00,40.00,21,8,32,0.01
2013-7-5,74,64,54,52,49,45,88,62,36,0.00,40.00,21,9,36,0.00
2013-7-7,81,69,53,48,39,31,75,38,16,0.00,40.00,25,10,34,0.00
2013-7-8,78,65,57,47,38,-100,56,40,25,0.00,40.00,24,12,32,0.00
2013-7-9,80,67,57,41,32,-100,52,31,16,0.00,40.00,25,10,35,0.00
2013-7-10,85,71,57,47,30,-100,48,27,13,0.00,40.00,16,7,39,0.00
2013-7-11,89,76,61,48,36,27,47,27,12,0.00,40.00,29,11,40,0.00
2013-7-12,77,67,59,56,46,-100,71,52,35,0.00,40.00,34,13,43,0.00
2013-7-13,77,65,58,52,49,46,69,57,33,0.00,40.00,24,10,32,0.00
2013-7-22,86,71,57,34,6,-100,30,13,5,0.00,40.00,24,13,40,0.00
2013-7-23,83,66,58,51,20,-100,59,23,7,0.00,40.00,15,8,24,0.00
2013-7-24,83,68,55,53,44,-100,63,45,19,0.00,40.00,19,9,27,0.00
2013-7-25,72,56,52,50,33,-100,93,55,32,0.00,40.00,23,8,32,0.01
2013-7-26,78,56,48,50,22,-100,92,40,20,0.00,40.00,24,8,34,0.00
2013-7-27,78,60,55,50,29,-100,80,40,18,0.00,40.00,18,8,26,0.00
2013-7-28,73,61,55,53,45,36,78,58,28,0.00,40.00,19,9,26,0.00
2013-7-29,73,60,55,45,37,-100,64,46,20,0.00,40.00,21,13,28,0.00
2013-7-30,74,60,51,43,35,-100,63,44,28,0.00,40.00,22,10,31,0.00
2013-7-31,78,67,52,46,40,34,62,39,21,0.00,40.00,16,9,26,0.00
2013-8-1,77,67,58,49,41,34,61,40,21,0.00,40.00,24,12,36,0.04
2013-8-2,78,68,60,46,40,27,56,39,15,0.00,40.00,26,20,32,0.00
2013-8-3,81,70,59,44,36,32,58,30,18,0.00,40.00,17,12,24,0.00
2013-8-4,80,69,59,41,36,29,48,31,16,0.00,40.00,21,11,29,0.00
2013-8-5,80,70,63,40,36,24,41,30,12,0.00,40.00,21,16,29,0.00
2013-8-6,80,69,58,38,33,21,44,28,12,0.00,40.00,18,12,27,0.00
2013-8-7,80,67,52,41,31,-100,55,30,13,0.00,40.00,13,5,21,0.00
2013-8-8,71,60,46,45,37,31,75,45,27,0.00,40.00,19,7,32,0.00
2013-8-9,70,58,47,44,35,-100,70,47,30,0.00,40.00,15,6,36,0.00
2013-8-10,77,63,47,44,35,26,75,40,16,0.00,40.00,23,10,35,0.00
2013-8-11,74,62,53,44,39,35,68,45,25,0.00,40.00,17,9,26,0.00
2013-10-11,-200,0,200,-100,-100,-100,0,0,100,0.00,40.00,25,25,32,0.00
2013-10-12,43,18,32,29,-36,-100,79,35,56,0.00,40.00,12,8,16,0.00
2013-10-13,-200,0,200,-100,-100,-100,0,0,100,0.00,40.00,7,4,10,0.00
2013-10-14,-200,0,200,-100,-100,-100,0,0,100,0.00,40.00,10,10,13,0.00
2013-10-15,26,15,21,21,-27,-100,100,52,80,0.00,40.00,6,4,10,0.00
2013-10-16,22,7,22,18,-61,-100,82,27,82,0.00,40.00,19,14,24,0.00
2013-10-17,35,22,31,23,-18,-100,72,44,60,0.00,40.00,28,17,37,0.00
2013-12-2,36,18,36,24,-38,-100,60,30,60,0.00,40.00,42,40,53,0.00
2013-12-3,-200,0,200,-100,-100,-100,0,0,100,0.00,40.00,6,6,9,0.00
2013-12-4,-9,-1,-9,-16,-91,-100,71,8,71,0.00,40.00,14,4,19,0.00
2013-12-5,-1,-1,-8,-6,-86,-100,78,11,68,0.00,40.00,17,11,22,0.00
2013-12-6,-1,0,-1,-5,-89,-100,86,10,86,0.00,40.00,7,3,10,0.00
2013-12-7,8,2,6,-2,-72,-100,67,19,63,0.00,40.00,21,13,31,0.00
2013-12-8,-200,0,200,-100,-100,-100,0,0,100,0.00,40.00,31,26,39,0.00